Location: St. Louis
(38.6270°N, 90.1994°W)
Time: 13:28:39
(UTC-06:00)

Transit 2A - Pass Details

Date: 07 December 2021
Orbit: 591 x 967 km, 66.7° (Epoch: 17 January)

Event Time Altitude Azimuth Distance (km) Brightness Sun altitude
Rises 01:02:27 0° 265° (W) 3,384 - -68.1°
Reaches altitude 10° 01:06:07 10° 290° (WNW) 2,531 - -67.6°
Maximum altitude 01:09:13 14° 322° (NW) 2,288 - -67.1°
Drops below altitude 10° 01:12:26 10° 353° (N) 2,641 - -66.6°
Sets 01:16:27 0° 17° (NNE) 3,634 - -66.0°
